Regional Weather Roundup
Issued by NWS

Home | Current Version | Previous Version | Text Only | Print | Product List | Glossary On
Versions: 1 2 3 4 5 6 7 8 9 10 11 12 13 14 15 16 17 18 19 20 21 22 23 24 25 26 27 28 29 30 31 32 33 34 35 36 37 38 39 40 41 42 43 44 45 46 47 48 49 50
680
ASUS43 KBIS 261302
RWRND

NORTH DAKOTA REGIONAL WEATHER ROUNDUP
NATIONAL WEATHER SERVICE BISMARCK ND
800 AM CDT MON SEP 26 2016

NOTE: "FAIR" INDICATES FEW OR NO CLOUDS BELOW 12,000 FEET WITH NO
SIGNIFICANT WEATHER AND/OR OBSTRUCTIONS TO VISIBILITY.


NDZ001>003-009>011-017-261400-
NORTHWEST NORTH DAKOTA

CITY           SKY/WX    TMP DP  RH WIND       PRES   REMARKS
WILLISTON      CLEAR     39  35  86 S7        30.20S
MINOT          CLEAR     47  33  58 W16       30.12R
MINOT AFB      CLEAR     43  34  71 NW14      30.11R
$$

NDZ018>021-031>035-040>046-261400-
SOUTHWEST NORTH DAKOTA

CITY           SKY/WX    TMP DP  RH WIND       PRES   REMARKS
BISMARCK       CLEAR     40  34  79 W7        30.17S
DICKINSON      CLEAR     39  36  89 W7        30.19S
GARRISON         N/A     42  37  82 W9        30.15R
HETTINGER ARPT CLEAR     39  36  89 W5        30.23R
$$

NDZ004>008-012>016-024-026-027-054-261400-
NORTHEAST NORTH DAKOTA

CITY           SKY/WX    TMP DP  RH WIND       PRES   REMARKS
GRAND FORKS    PTCLDY    47  38  71 W13       29.94S
GRND FRKS AFB  CLEAR     48  36  63 NW15G21   29.95S
DEVILS LAKE    CLEAR     44  38  79 W15       30.03S
$$

NDZ022-023-025-028>030-036>039-047>053-261400-
SOUTHEAST NORTH DAKOTA

CITY           SKY/WX    TMP DP  RH WIND       PRES   REMARKS
FARGO          CLEAR     48  37  65 W15       29.98S
JAMESTOWN      CLEAR     43  37  79 W13       30.07R
$$





USA.gov is the U.S. government's official web portal to all federal, state and local government web resources and services.